Location: Unspecified
(0.0000°N, 0.0000°E)
Time: 17:29:22
(UTC+00:00)

CUTE-I - Pass Details

Date: 30 May 2019
Orbit: 810 x 825 km, 98.7° (Epoch: 15 June)

Event Time Altitude Azimuth Distance (km) Brightness Sun altitude
Rises 19:01:44 0° 199° (SSW) 3,352 ? -14.9°
Reaches altitude 10° 19:04:59 10° 220° (SW) 2,414 ? -15.6°
Maximum altitude 19:08:08 16° 257° (WSW) 2,015 ? -16.3°
Drops below altitude 10° 19:11:18 10° 294° (WNW) 2,402 ? -17.1°
Sets 19:14:33 0° 315° (NW) 3,327 ? -17.8°
